Temp
9 8 8 8 7 8 8 7 7 7 6 6 6 6 6 6 8 7 7 7 7 7 7 7 7 7 7 7 7 6 7 7 7 7 6 7 7 7 7 6 6 6 6
8 8 7 7 8 8 7 7 6 6 6 6 6 6 6 6 7 7 6 7 7 6 6 7 7 7 7 7 6 6 6 6 6 6 6 6 6 6 6 6 6 6 6
8 8 8 8 8 7 7 6 6 6 6 6 6 6 6 6 6 6 6 6 6 6 6 6 6 6 7 6 6 6 6 6 5 6 6 6 6 6 6 5 5 6 6
8 7 7 7 7 7 6 6 5 6 6 6 6 6 6 5 6 6 6 6 6 5 5 6 6 6 6 6 6 6 6 5 5 5 6 5 6 5 5 5 5 5 5
7 7 7 6 6 6 6 5 5 5 4 5 5 5 5 5 6 6 6 6 5 5 5 6 6 6 6 6 6 6 5 5 5 5 5 5 5 5 5 5 5 5 5
6 7 6 5 5 6 5 5 4 4 4 4 4 5 4 5 5 5 6 6 6 5 5 5 5 5 6 6 6 6 5 5 5 5 4 5 5 5 5 5 5 5 5
6 6 6 5 5 5 4 5 3 4 4 4 4 4 4 5 4 5 6 6 5 5 5 5 5 5 5 5 5 5 5 5 4 4 5 5 5 5 5 4 5 5 5
6 5 5 5 4 5 4 3 4 4 4 3 3 3 3 4 5 4 5 6 5 5 5 4 5 5 5 5 5 5 5 5 5 4 5 4 4 4 4 4 4 5 5
6 5 5 4 5 4 4 5 4 3 4 4 3 2 3 3 4 3 4 5 5 5 4 4 4 5 5 5 5 4 4 5 5 4 5 4 4 4 4 4 4 4 4
6 5 4 4 3 3 3 3 3 4 3 3 3 2 3 3 3 2 2 4 5 5 4 4 4 4 4 4 4 4 4 4 4 4 4 4 4 4 4 4 4 4 4
5 5 4 4 3 3 3 3 3 3 3 2 3 2 2 2 2 1 2 3 4 4 3 3 3 3 4 4 3 3 4 4 4 4 4 4 4 4 4 4 3 4 4
4 5 5 4 4 4 3 3 3 3 3 3 3 2 2 2 0 1 1 3 4 3 3 3 3 3 3 3 3 3 3 3 3 3 3 3 3 3 3 3 3 3 3
5 5 5 5 4 4 4 3 3 3 2 2 3 3 2 2 1 0 2 3 3 3 2 2 3 3 3 2 3 3 3 3 3 3 3 2 2 3 3 3 3 3 3
5 5 5 5 4 4 4 4 3 2 3 3 2 3 2 1 1 1 2 2 2 3 2 2 2 2 2 2 2 2 3 2 2 2 2 2 2 2 2 2 2 2 3
4 4 5 5 5 4 4 4 4 2 2 3 2 2 0 -1 -0 1 2 2 2 2 2 2 1 2 2 2 2 2 2 1 2 1 2 2 2 2 2 2 2 2 2
5 5 5 5 5 5 5 4 3 2 4 2 2 2 1 -2 -2 -1 0 1 1 1 1 1 1 1 1 1 2 1 1 1 1 1 1 1 1 1 1 1 1 1 1
5 5 5 5 5 5 4 2 1 2 2 2 1 1 1 -1 -1 -2 -0 -0 1 1 1 1 1 1 1 2 1 1 1 1 1 1 1 1 1 1 1 1 1 1 1
5 5 6 6 5 3 2 2 2 2 2 1 1 0 0 -2 -3 -2 -1 -1 -1 -0 -0 -0 0 1 1 1 1 0 0 0 1 1 1 1 1 1 1 1 1 1 1
5 6 5 5 4 2 1 1 1 1 2 1 1 0 -1 -3 -2 -3 -2 -2 -2 -1 -2 -0 0 1 1 1 -0 -0 0 0 1 0 0 0 0 0 0 0 0 0 0
6 5 5 4 1 2 1 1 1 1 1 1 0 0 -0 -1 -2 -2 -2 -2 -1 -1 -0 -1 -1 0 1 -0 -0 0 0 0 0 -0 -0 0 -0 -0 -0 -0 -0 -0 -0
5 5 5 3 1 2 1 2 1 1 1 0 0 -1 -1 -2 -2 -2 -2 -1 -2 -1 -1 -1 -1 -0 -0 -0 -0 0 -0 -0 -0 -0 -0 -1 -0 -1 -1 -1 -1 -1 -1
6 6 6 4 3 2 2 2 1 1 1 1 -0 -1 -2 -2 -1 -2 -2 -1 -1 -1 -1 -1 -1 -1 -1 -1 -0 -1 -1 -0 -0 -0 -0 -0 -0 -1 -1 -1 -0 -0 -1
6 6 6 4 3 3 3 3 1 1 0 0 0 -0 -2 -2 -2 -2 -2 -2 -1 -1 -1 -1 -1 -1 -1 -1 -1 -1 -0 -0 -0 -0 -1 -0 -1 -0 -1 -1 -0 -1 -1
6 6 5 5 4 3 3 3 1 1 1 0 0 0 -0 -2 -2 -2 -1 -1 -1 -1 -1 -1 -2 -2 -2 -1 -1 -1 -1 -1 -0 -0 -0 -1 -1 -1 -1 -0 -1 -1 -1
6 6 6 5 5 4 3 2 1 1 1 1 0 -0 -0 -0 -1 -2 -2 -1 -2 -1 -1 -2 -2 -2 -2 -2 -1 -1 -1 -1 -1 -0 -0 -0 0 -1 -1 -1 -0 -1 -1
6 6 6 5 5 5 4 3 2 1 1 0 0 0 -0 -0 -0 -1 -1 -2 -1 -2 -2 -2 -1 -2 -2 -2 -1 -1 -1 -1 -1 -1 -1 -0 -0 -0 -1 -2 -1 -1 -1
Height
3134 3133 3135 3136 3139 3140 3141 3143 3145 3146 3146 3147 3149 3150 3151 3153 3155 3156 3156 3158 3158 3160 3162 3163 3164 3165 3167 3167 3168 3169 3170 3171 3172 3173 3174 3175 3175 3176 3175 3175 3175 3175 3176
3132 3131 3133 3136 3137 3138 3140 3141 3143 3143 3144 3146 3148 3149 3150 3152 3153 3157 3156 3157 3158 3160 3161 3163 3163 3165 3166 3167 3169 3170 3171 3172 3173 3175 3174 3175 3175 3175 3175 3176 3176 3176 3177
3132 3132 3132 3132 3133 3135 3137 3138 3139 3141 3142 3145 3147 3149 3150 3152 3153 3154 3157 3157 3159 3160 3161 3162 3164 3165 3167 3169 3170 3171 3171 3173 3174 3175 3174 3175 3174 3175 3177 3177 3177 3178 3178
3131 3131 3129 3129 3131 3130 3132 3134 3136 3137 3140 3142 3144 3148 3149 3151 3153 3155 3156 3156 3158 3159 3160 3162 3164 3166 3168 3169 3170 3172 3173 3173 3174 3175 3174 3175 3176 3177 3178 3179 3180 3180 3181
3128 3127 3126 3128 3128 3128 3131 3131 3131 3133 3134 3138 3140 3145 3148 3149 3152 3152 3155 3156 3156 3158 3161 3162 3165 3167 3168 3169 3170 3172 3173 3174 3174 3175 3175 3177 3178 3179 3179 3181 3181 3181 3182
3124 3123 3122 3123 3126 3125 3126 3127 3123 3130 3133 3135 3138 3142 3146 3148 3151 3152 3154 3155 3156 3158 3160 3162 3164 3166 3167 3168 3170 3172 3173 3173 3175 3176 3178 3178 3179 3181 3179 3182 3182 3183 3183
3120 3118 3119 3120 3123 3121 3118 3121 3118 3114 3129 3134 3136 3139 3143 3146 3148 3151 3153 3156 3156 3157 3159 3162 3163 3166 3168 3169 3171 3172 3174 3175 3176 3177 3179 3177 3179 3181 3181 3182 3183 3184 3184
3115 3113 3113 3116 3118 3112 3106 3120 3117 3126 3126 3126 3135 3136 3139 3142 3146 3150 3152 3155 3156 3156 3159 3161 3163 3165 3167 3169 3170 3172 3174 3176 3177 3178 3179 3180 3180 3181 3182 3183 3183 3185 3184
3111 3110 3109 3110 3111 3111 3110 3114 3118 3123 3126 3128 3130 3128 3136 3138 3144 3146 3150 3154 3155 3157 3158 3161 3163 3164 3167 3169 3171 3173 3174 3176 3177 3179 3179 3180 3180 3181 3182 3184 3184 3185 3184
3106 3106 3106 3107 3109 3108 3110 3113 3115 3119 3122 3125 3126 3129 3130 3134 3140 3144 3148 3152 3154 3156 3157 3160 3161 3164 3167 3168 3171 3173 3174 3175 3176 3178 3180 3181 3180 3181 3182 3184 3185 3185 3185
3103 3102 3103 3102 3105 3107 3109 3111 3114 3117 3119 3121 3119 3118 3121 3130 3135 3143 3146 3149 3153 3154 3156 3158 3160 3163 3166 3168 3171 3172 3173 3175 3176 3177 3180 3182 3181 3182 3184 3185 3185 3185 3185
3099 3099 3101 3102 3103 3104 3107 3109 3110 3111 3113 3115 3114 3108 3114 3123 3131 3137 3142 3147 3150 3153 3155 3157 3160 3163 3166 3168 3170 3172 3173 3175 3175 3176 3178 3181 3181 3183 3183 3184 3185 3185 3185
3096 3096 3096 3097 3099 3101 3102 3103 3106 3107 3108 3109 3107 3109 3109 3119 3122 3133 3139 3143 3147 3151 3153 3156 3159 3163 3166 3167 3169 3172 3173 3175 3175 3177 3178 3179 3180 3182 3183 3184 3184 3184 3185
3093 3093 3093 3093 3092 3094 3095 3097 3099 3100 3101 3101 3100 3091 3099 3110 3122 3130 3136 3140 3144 3149 3152 3155 3158 3161 3165 3167 3170 3171 3173 3175 3176 3176 3176 3178 3179 3181 3182 3183 3184 3184 3184
3089 3088 3090 3089 3089 3088 3089 3090 3092 3094 3094 3093 3089 3094 3100 3110 3120 3129 3135 3139 3142 3147 3151 3154 3157 3160 3165 3166 3169 3170 3172 3174 3174 3174 3176 3177 3178 3180 3181 3182 3183 3183 3182
3085 3085 3085 3085 3086 3084 3084 3084 3086 3086 3084 3085 3083 3086 3095 3104 3113 3124 3131 3137 3141 3144 3149 3153 3156 3159 3163 3165 3167 3170 3171 3172 3173 3174 3175 3176 3177 3178 3179 3180 3180 3181 3180
3082 3081 3081 3081 3080 3079 3079 3080 3083 3083 3083 3082 3084 3089 3093 3102 3112 3121 3131 3135 3139 3143 3147 3151 3154 3159 3161 3163 3166 3168 3170 3171 3171 3172 3173 3176 3176 3178 3179 3179 3179 3178 3177
3080 3078 3078 3077 3075 3074 3075 3078 3080 3083 3084 3087 3086 3090 3095 3101 3114 3123 3130 3133 3136 3141 3145 3148 3153 3157 3162 3162 3164 3166 3168 3170 3171 3172 3174 3174 3175 3176 3177 3176 3176 3175 3174
3078 3076 3074 3071 3070 3070 3072 3075 3077 3081 3085 3086 3088 3092 3097 3104 3110 3116 3123 3127 3133 3138 3143 3147 3152 3157 3159 3160 3162 3165 3167 3168 3170 3171 3172 3173 3173 3173 3173 3173 3172 3171 3170
3076 3074 3070 3065 3066 3068 3072 3073 3075 3079 3081 3084 3087 3090 3094 3098 3106 3114 3122 3129 3135 3139 3144 3146 3151 3154 3155 3158 3160 3163 3165 3166 3167 3169 3169 3169 3169 3170 3169 3169 3168 3168 3166
3075 3072 3067 3063 3066 3069 3070 3073 3074 3077 3080 3083 3086 3090 3094 3101 3108 3114 3122 3127 3132 3138 3142 3144 3147 3151 3153 3156 3159 3161 3162 3164 3165 3166 3166 3166 3166 3166 3167 3165 3164 3163 3162
3073 3071 3068 3065 3066 3070 3072 3075 3076 3078 3081 3084 3087 3091 3095 3100 3109 3114 3120 3124 3130 3134 3139 3141 3145 3148 3151 3153 3156 3157 3159 3162 3162 3162 3162 3162 3163 3163 3162 3162 3161 3159 3157
3071 3070 3069 3067 3067 3069 3070 3072 3075 3077 3079 3081 3085 3089 3095 3099 3106 3111 3116 3122 3126 3132 3135 3138 3141 3144 3146 3149 3151 3154 3156 3157 3158 3156 3158 3157 3158 3158 3158 3157 3156 3154 3153
3069 3069 3069 3067 3067 3068 3069 3072 3074 3077 3078 3081 3085 3089 3093 3098 3104 3109 3113 3118 3122 3127 3131 3135 3137 3141 3143 3145 3147 3149 3150 3153 3153 3154 3152 3152 3153 3153 3152 3151 3149 3149 3147
3067 3067 3067 3068 3067 3067 3069 3071 3073 3075 3077 3079 3083 3086 3091 3095 3099 3105 3108 3115 3118 3123 3128 3130 3133 3135 3138 3140 3143 3144 3145 3147 3147 3148 3148 3147 3148 3149 3147 3146 3143 3142 3140
3065 3065 3066 3066 3066 3067 3068 3069 3070 3073 3076 3078 3080 3082 3087 3092 3095 3100 3104 3109 3113 3118 3122 3126 3130 3131 3133 3134 3136 3138 3140 3141 3142 3142 3143 3143 3142 3141 3139 3137 3136 3135 3133
Wind_Speed
10 14 17 23 17 10 12 12 13 14 15 16 15 14 14 7 8 5 5 7 10 12 14 12 12 11 12 13 13 13 12 11 10 8 9 9 9 9 9 8 8 9 9
10 16 19 20 18 17 18 16 16 15 13 12 13 13 14 11 9 9 6 9 11 15 12 11 11 12 12 13 13 12 11 11 10 9 9 9 10 11 11 11 10 10 11
6 11 15 19 22 20 20 20 18 15 14 14 14 14 19 15 11 7 9 9 15 15 10 10 12 12 11 11 11 11 11 11 10 10 10 10 11 11 10 11 10 10 11
11 14 24 24 26 26 26 23 22 20 19 18 15 15 19 17 14 10 11 12 17 17 13 12 11 11 11 12 11 10 11 12 11 10 10 10 10 11 11 11 12 12 12
12 17 24 29 33 29 24 25 27 25 26 23 19 17 20 18 16 8 12 15 18 17 14 11 11 11 12 12 11 10 10 10 11 11 9 9 8 11 12 11 12 12 12
17 19 23 30 30 35 27 37 31 27 26 27 25 18 18 16 18 10 11 17 18 17 13 13 12 12 12 11 11 10 10 10 10 8 9 9 9 11 12 11 11 10 11
19 21 21 23 27 31 27 27 23 24 23 26 27 21 19 18 15 9 10 18 19 16 14 13 14 13 12 11 9 8 8 9 9 9 9 10 10 10 11 11 10 10 10
20 20 23 21 29 31 40 19 20 21 22 22 29 26 22 20 16 14 12 17 19 18 16 16 16 14 12 11 10 9 8 7 7 9 10 10 11 11 10 10 10 10 10
19 17 21 22 27 25 21 17 18 23 26 28 29 25 26 25 22 17 15 17 21 18 18 18 15 14 13 11 10 8 7 7 8 8 9 10 11 10 10 9 9 9 11
21 13 17 19 27 29 17 21 22 27 33 37 39 39 30 29 25 27 20 23 22 21 19 18 16 15 13 12 11 10 9 8 9 6 6 8 10 10 10 9 9 10 10
22 15 13 13 16 18 26 25 28 30 34 34 41 32 38 36 30 24 27 25 25 23 21 19 17 16 14 14 12 11 10 9 8 8 6 7 9 9 9 9 10 9 8
17 17 15 19 21 24 21 30 31 33 29 27 33 33 37 40 33 32 33 28 26 26 23 20 18 15 13 12 10 10 9 9 9 9 10 9 8 9 10 9 8 7 7
14 18 20 21 21 21 26 28 32 29 27 28 40 45 61 44 36 33 34 31 29 27 24 22 19 16 14 12 9 9 8 7 8 10 10 10 10 9 9 9 7 5 4
16 15 18 20 21 21 24 25 30 27 30 35 33 46 52 50 39 38 36 32 30 27 23 22 19 16 12 10 10 7 7 8 9 10 10 10 10 9 8 7 6 5 5
15 13 12 15 20 22 23 25 27 28 28 30 42 57 42 40 41 37 38 32 29 27 25 22 18 15 9 8 7 7 8 9 10 9 10 10 10 10 8 7 6 6 6
9 9 10 12 15 19 21 25 26 21 22 24 58 53 47 49 48 36 39 32 30 28 25 21 16 12 11 10 6 11 11 11 10 10 11 11 9 8 7 7 6 6 6
9 10 10 13 16 21 24 23 20 12 12 35 49 42 33 49 40 37 39 32 31 26 27 22 18 14 7 10 14 13 12 12 11 11 12 11 10 9 8 8 8 9 10
11 12 13 14 16 19 19 17 16 17 24 18 31 33 34 39 34 37 32 32 33 32 23 19 15 11 15 15 14 15 14 12 10 10 9 9 8 8 10 10 11 12 13
11 13 18 19 16 16 13 17 21 19 25 26 34 31 38 41 44 42 47 45 40 30 25 21 17 17 14 13 14 15 14 12 10 10 9 9 8 9 10 11 13 15 16
12 15 19 19 17 16 18 12 19 23 28 30 32 27 32 45 51 46 44 36 32 29 31 28 22 17 15 14 14 14 13 12 10 10 9 10 10 10 13 16 17 17 20
10 13 18 5 13 12 17 15 17 23 30 28 24 27 35 38 35 40 44 41 30 28 28 31 25 18 15 14 14 12 12 12 11 11 11 11 12 14 16 18 17 21 21
8 10 10 9 12 13 13 17 19 27 31 29 24 30 28 33 37 40 35 36 34 32 36 29 24 19 16 17 16 16 14 14 12 13 14 16 16 16 21 18 20 20 21
6 5 2 8 10 16 13 19 22 28 32 33 31 33 39 41 41 41 42 43 41 38 33 27 24 22 18 18 17 17 17 17 16 17 15 20 16 18 22 25 20 23 25
7 3 1 5 9 13 14 20 18 25 35 32 33 32 34 44 45 47 35 36 37 39 33 27 21 19 19 18 20 19 24 22 16 19 19 21 22 22 23 24 27 27 25
8 6 4 5 7 8 12 16 20 24 26 33 34 37 34 33 37 48 44 41 40 36 34 29 27 26 21 20 23 25 27 28 21 25 20 25 26 25 28 29 29 27 26
10 8 7 6 6 6 7 12 21 25 25 32 35 41 34 34 35 37 40 45 45 42 39 32 29 24 23 26 25 27 29 31 26 26 25 25 27 30 28 28 29 30 31
Wind_Direction
257 224 215 209 216 218 224 222 216 228 243 250 233 233 253 232 264 242 198 200 184 185 164 159 163 161 168 162 154 153 147 141 135 134 132 133 136 140 134 130 130 133 125
255 236 213 221 230 233 223 211 227 227 219 210 220 226 242 250 237 254 225 194 178 164 158 166 165 171 169 161 153 146 137 127 125 125 125 131 134 136 133 135 131 125 117
267 221 217 233 229 231 221 215 218 217 218 235 231 227 241 242 239 254 240 197 179 178 183 177 180 174 172 156 140 134 126 123 127 135 142 144 144 137 138 133 127 121 116
262 255 231 237 233 229 218 216 211 210 215 228 230 236 244 241 244 237 248 203 187 191 197 186 185 176 165 147 143 138 133 137 145 154 154 148 147 144 137 127 121 116 114
284 268 252 239 238 233 223 217 214 210 208 223 221 249 238 231 237 247 238 208 190 195 194 184 182 175 158 155 147 142 144 153 157 174 150 146 146 137 128 123 123 118 110
281 262 252 245 245 244 232 268 220 215 217 220 220 240 229 223 242 242 234 217 197 196 189 184 177 174 164 162 155 159 163 167 175 152 139 138 137 138 131 129 122 113 109
284 270 268 252 243 241 230 237 216 201 214 217 215 219 225 228 232 218 228 227 203 193 186 183 180 178 170 165 161 164 166 167 153 143 149 147 148 139 131 128 122 117 108
293 265 264 249 247 238 242 218 225 232 241 222 217 214 221 225 230 215 211 225 214 192 184 184 183 176 170 168 167 168 169 161 149 151 158 151 147 140 139 133 125 118 110
296 271 265 248 231 230 248 229 248 240 247 245 255 219 222 212 221 209 217 232 217 191 183 185 177 176 174 170 172 170 167 165 161 169 160 153 146 144 139 132 128 127 125
287 263 259 254 248 235 239 246 242 241 242 242 243 241 226 214 203 218 210 209 214 197 183 182 174 176 173 170 178 177 167 173 162 171 178 160 152 144 145 144 143 137 136
272 257 243 239 243 232 237 242 242 243 237 238 245 222 224 217 194 193 199 200 204 194 184 178 176 178 183 179 174 165 169 169 165 157 181 174 155 156 157 155 150 150 154
260 259 251 234 230 229 231 230 234 236 229 238 242 248 215 215 186 191 203 199 195 192 181 178 180 182 181 180 175 177 170 176 162 170 173 178 171 169 164 164 162 163 167
263 258 260 255 242 232 231 233 227 234 245 246 235 210 247 220 195 187 200 187 189 191 181 178 179 179 175 164 166 190 170 185 170 180 174 175 174 173 175 178 176 186 190
267 260 251 250 251 241 238 237 237 246 254 252 244 184 198 192 179 187 199 186 185 190 181 179 174 170 165 157 164 160 179 188 183 176 180 178 177 178 185 191 198 207 219
262 259 252 254 252 253 251 249 250 249 249 258 226 202 194 174 180 188 195 183 179 182 179 177 170 157 172 177 199 189 189 187 186 170 181 183 179 185 194 206 222 236 249
276 273 268 253 247 246 248 249 249 257 261 235 188 188 185 179 181 185 189 179 178 176 171 166 165 174 182 181 202 213 198 195 183 180 186 186 189 196 205 216 229 249 268
296 288 280 266 253 244 243 245 241 241 228 225 201 215 208 190 187 188 190 175 172 171 169 170 165 171 175 215 214 208 208 201 195 197 204 209 209 219 235 251 262 273 283
302 302 296 280 269 255 236 218 224 214 207 227 209 205 224 174 174 182 181 181 182 174 167 157 162 173 208 209 206 210 212 208 206 209 216 227 239 251 256 263 271 275 284
296 302 304 298 261 209 212 204 212 213 213 220 207 205 189 171 178 179 188 185 175 169 162 166 172 190 199 206 207 212 216 217 217 223 230 240 249 260 269 275 278 282 284
294 308 310 295 202 210 191 212 203 207 214 207 200 224 213 192 187 189 187 193 182 192 203 189 186 193 196 201 206 211 217 218 219 226 238 240 246 264 273 286 292 289 291
293 316 319 218 188 208 190 187 196 205 199 201 226 201 190 185 185 186 189 181 186 186 185 183 186 191 190 197 205 210 219 226 230 241 249 252 251 265 278 282 280 279 277
290 325 330 165 175 182 197 187 209 200 210 217 214 189 186 186 188 179 186 195 202 212 200 183 184 194 202 208 214 223 236 246 249 250 255 255 255 267 274 283 285 278 276
277 316 337 188 171 183 187 199 202 205 214 216 214 205 193 196 196 191 197 210 215 217 192 180 189 198 206 225 221 230 241 249 247 252 261 272 266 270 293 287 286 281 280
252 258 283 162 211 217 227 211 202 202 205 215 221 216 218 207 205 208 203 205 225 197 200 198 197 209 223 236 245 256 252 257 246 265 255 264 270 278 276 288 292 285 285
233 227 205 168 166 196 216 227 217 205 213 214 223 224 222 225 217 215 224 217 212 208 205 201 206 212 219 244 248 253 263 267 263 266 267 279 279 283 282 283 287 290 292
234 224 208 187 156 159 195 218 225 222 213 208 220 226 220 228 226 217 217 216 219 210 209 208 213 219 232 239 247 255 264 270 260 272 270 273 279 283 282 275 283 296 295